Presure
130 147 150 139 141 140 148 160 166 162 166 144 136 142 161 133 138 168 186 142 174 187 192 163 141 156 156 171 174 180 167 157 156 163 163 160 162 145 153 154 181 156 158
145 132 145 135 144 151 166 179 171 169 181 152 148 160 133 146 137 152 186 154 203 194 187 187 153 151 154 152 165 157 163 165 165 166 172 163 166 162 145 165 122 145 154
135 141 159 140 149 163 177 184 172 130 152 146 148 157 140 148 128 140 173 201 211 181 171 178 153 176 189 137 164 129 181 177 161 157 165 161 162 163 157 156 159 153 125
140 143 134 144 157 180 191 193 161 160 161 169 158 137 137 148 176 141 163 160 199 178 173 173 177 178 168 176 169 165 161 171 175 175 164 164 164 165 159 166 155 145 159
147 143 138 148 162 193 215 143 178 169 160 171 180 134 135 136 162 160 122 181 179 130 156 170 161 194 139 175 179 174 173 176 169 170 183 180 164 154 165 157 163 167 140
147 143 139 150 169 158 139 142 159 165 151 158 140 141 128 127 157 170 150 138 135 168 139 169 168 174 167 174 188 180 196 198 193 195 177 167 132 178 148 160 154 170 162
146 155 144 153 171 163 133 150 144 127 138 169 133 137 152 186 166 155 168 164 145 171 169 131 160 157 160 169 173 186 218 195 194 189 219 128 180 180 169 156 172 166 170
150 156 151 163 178 130 144 150 161 166 149 145 141 154 188 148 164 186 163 178 192 129 174 181 116 120 182 195 174 174 243 197 186 203 190 191 163 175 182 152 185 157 156
171 164 155 162 203 128 149 153 177 141 167 148 156 183 169 191 184 180 177 156 181 185 189 194 187 178 133 160 160 127 179 190 224 228 192 184 183 174 179 146 149 154 156
177 186 155 170 122 123 152 163 171 175 190 158 148 178 191 180 193 193 196 201 126 188 173 118 186 185 98 183 186 181 189 138 184 195 198 195 192 193 193 197 186 174 170
184 172 160 162 130 154 161 166 146 155 158 153 149 126 103 138 199 206 132 207 207 208 213 203 180 171 135 187 189 192 181 171 192 151 179 198 201 197 198 194 187 182 179
190 167 163 181 128 154 166 172 156 199 149 142 130 155 139 111 184 195 129 138 160 193 212 174 218 206 208 90 206 205 195 195 174 142 177 167 154 161 152 171 163 164 175
175 161 168 184 101 159 172 182 194 136 137 119 127 135 133 127 136 192 191 123 187 209 195 199 110 198 201 213 221 219 215 214 213 210 198 202 190 154 187 171 173 164 176
138 178 172 128 158 175 172 136 168 141 132 121 133 120 129 127 122 116 127 121 119 143 136 134 136 145 154 153 129 161 213 182 179 185 204 213 138 132 197 200 187 165 175
137 162 203 162 132 124 138 169 204 135 119 120 116 133 114 135 131 110 139 147 151 127 138 126 122 116 133 137 115 143 129 136 123 121 172 183 192 198 227 212 204 199 199
135 158 192 147 139 184 194 209 135 134 124 120 122 133 128 126 138 176 134 127 129 129 143 129 145 129 135 130 135 127 133 149 128 145 135 156 178 178 190 244 232 226 200
142 160 183 134 177 182 192 89 124 126 125 135 134 126 137 123 121 128 124 129 188 132 136 119 182 155 143 133 132 137 140 124 123 134 142 124 156 145 167 194 256 243 237
152 156 178 139 179 167 193 133 140 133 125 127 122 113 112 107 143 109 116 116 135 144 141 164 130 134 197 132 149 157 121 132 130 123 129 132 126 146 136 144 149 170 175
187 182 172 142 175 181 188 134 142 137 124 130 127 134 129 150 135 143 136 123 172 130 131 130 128 127 143 125 98 119 119 124 122 154 156 108 125 166 146 141 143 136 168
176 173 172 130 173 168 168 138 140 143 126 127 124 122 136 134 134 134 129 124 146 111 141 139 126 127 149 144 123 126 163 172 156 196 187 110 111 119 108 110 130 149 145
166 173 169 127 173 161 126 155 125 124 131 120 138 148 131 123 122 142 141 140 154 149 149 139 141 115 122 131 116 103 167 99 99 97 134 172 173 127 130 109 115 144 118
168 187 169 121 151 169 156 131 127 123 129 138 119 130 125 129 122 121 136 121 132 133 134 139 117 129 117 158 119 127 113 146 148 138 155 122 120 182 112 171 154 122 148
177 158 167 157 127 156 154 134 119 132 125 133 125 127 137 127 129 122 137 132 127 128 143 127 108 115 107 133 130 132 110 114 134 119 167 193 157 124 145 158 147 143 140
188 192 179 167 132 129 149 141 126 132 132 114 123 129 119 111 121 139 134 132 131 111 115 112 93 131 101 137 135 141 115 141 127 136 123 173 194 133 125 169 145 144 120
168 170 97 174 157 127 151 150 138 119 134 133 124 131 128 128 122 120 120 127 131 135 134 124 129 127 136 144 135 133 146 140 123 138 158 182 189 178 135 169 111 181 140
177 186 163 171 145 138 120 150 148 139 137 125 125 126 121 145 138 108 137 154 144 133 126 136 131 130 128 128 126 128 133 139 131 148 180 144 197 206 223 161 145 156 154
Wind_Speed
19 25 25 20 23 21 21 21 13 10 10 6 4 8 14 10 9 23 20 19 12 4 5 4 12 8 9 6 7 9 6 4 3 8 9 9 7 8 6 6 3 6 8
24 19 24 23 25 25 25 18 11 10 10 6 8 12 12 15 10 17 20 20 5 10 11 7 5 8 4 4 2 1 4 4 5 8 7 7 7 6 6 2 9 9 10
19 21 25 21 24 27 22 14 8 9 10 13 12 14 13 15 15 16 17 8 10 11 8 9 6 4 5 11 2 16 1 6 5 5 7 6 6 6 6 7 4 7 10
18 20 19 20 24 29 21 11 10 12 14 13 13 12 14 14 18 16 15 13 15 5 9 5 6 4 3 3 4 7 7 2 6 8 7 8 8 7 6 3 4 7 8
18 18 18 18 22 27 13 17 11 14 18 15 13 11 15 15 16 15 21 6 2 28 10 6 4 6 17 4 5 9 11 9 8 5 7 9 9 1 7 5 3 3 7
18 16 15 15 21 14 17 16 20 19 17 15 9 10 16 15 18 17 17 20 22 13 22 6 5 9 6 8 10 10 10 6 4 7 7 3 10 11 7 1 5 2 4
17 18 16 14 18 12 12 17 16 11 12 10 14 14 16 13 15 17 13 9 14 5 10 25 8 11 10 10 17 18 10 9 5 2 7 10 6 6 3 4 5 1 1
17 17 14 15 18 12 14 16 16 13 11 12 17 17 15 14 16 14 22 12 18 18 16 18 25 27 14 16 16 17 18 13 11 2 1 3 8 3 7 5 5 5 7
22 17 14 11 11 12 13 15 14 11 13 18 20 20 17 18 17 14 13 19 18 16 17 18 20 21 30 16 18 26 21 27 24 10 8 7 3 2 2 8 8 9 9
20 15 11 9 11 11 12 10 12 11 16 17 20 21 22 21 21 19 19 19 24 17 18 23 22 20 20 20 20 21 25 28 31 22 14 9 5 2 2 3 4 5 7
18 8 7 6 9 11 10 9 14 17 15 21 24 27 18 20 23 21 27 22 20 22 20 21 17 22 26 22 21 23 21 25 25 29 23 15 10 10 5 2 1 3 8
17 9 5 4 11 10 6 10 12 13 19 19 23 31 43 23 26 28 26 28 30 33 30 24 26 31 31 17 27 27 26 26 27 32 25 23 23 21 23 15 16 15 13
9 6 4 2 14 9 5 9 9 16 20 28 23 34 41 28 25 33 34 30 40 38 38 37 21 37 40 38 36 34 31 31 32 34 33 27 23 28 16 12 10 14 10
7 5 2 8 7 3 4 11 14 21 18 24 23 35 30 22 22 25 23 27 22 47 43 41 43 46 47 46 34 48 49 49 47 46 44 37 34 33 19 15 11 14 12
6 4 8 5 9 6 12 6 7 21 20 21 25 24 25 19 19 24 25 28 32 19 39 29 26 24 37 40 25 41 34 39 33 27 43 49 53 50 33 17 12 11 11
3 5 12 7 9 8 4 5 15 18 20 19 18 19 18 19 22 25 23 23 24 26 25 28 35 30 36 34 35 23 33 41 35 39 39 43 44 45 48 30 28 16 13
5 6 13 11 10 12 8 14 15 15 14 14 17 19 16 22 19 18 15 22 30 26 26 11 27 25 31 30 32 34 35 23 25 38 43 26 40 43 40 48 27 22 17
8 5 14 12 12 12 10 18 19 12 14 13 14 15 14 17 18 11 15 15 22 24 26 37 16 22 22 32 31 27 28 34 32 26 37 36 28 36 40 40 39 37 39
17 14 14 12 16 17 17 19 21 16 15 10 10 9 10 13 15 17 16 11 23 21 25 26 25 26 30 26 20 23 24 30 25 28 32 26 31 39 42 33 35 38 35
16 16 15 14 19 24 25 22 20 17 15 13 12 13 12 13 13 14 10 7 18 7 20 22 22 23 29 30 27 29 35 31 35 27 33 18 19 25 25 24 38 36 39
16 17 18 16 19 25 20 26 22 21 13 9 7 7 11 15 14 14 16 15 16 19 21 23 24 20 25 28 23 18 32 25 26 24 29 34 35 33 36 21 23 40 31
18 21 21 18 20 24 26 20 20 21 15 9 12 6 12 11 12 12 13 11 15 15 18 22 12 24 19 28 24 26 25 30 34 29 36 26 29 33 30 24 29 36 43
20 16 21 23 18 26 26 18 16 16 16 11 9 6 2 9 10 12 10 11 12 15 16 15 3 15 9 24 24 26 20 27 32 24 34 36 32 31 26 22 32 37 44
22 27 28 26 22 20 27 21 16 16 15 14 14 7 10 10 8 7 8 10 9 2 6 4 8 17 12 20 22 25 19 32 29 29 29 38 36 38 36 22 34 38 35
22 22 4 31 26 21 25 27 19 13 16 14 11 7 4 1 4 4 4 7 9 12 13 7 16 17 20 22 21 23 27 30 24 31 41 40 35 18 21 22 28 24 41
23 29 20 28 23 24 26 27 27 20 16 12 9 6 6 7 4 7 6 1 6 5 4 16 13 14 14 17 15 18 22 27 26 37 43 31 35 34 32 25 30 24 32
Wind_Direction
8 355 1 354 356 345 332 331 330 337 334 26 52 28 353 30 9 357 339 28 355 10 98 89 3 40 42 134 115 102 126 171 195 177 170 191 201 227 239 267 338 284 296
6 3 356 357 348 343 338 340 352 340 338 13 25 6 38 11 27 12 348 358 107 104 107 102 320 2 330 1 137 260 130 160 164 183 175 206 188 207 252 204 30 308 306
355 353 354 352 349 345 349 345 2 26 6 38 34 12 31 15 37 31 3 69 114 119 136 105 346 114 100 26 255 27 103 177 268 293 222 228 228 224 225 267 292 310 55
351 346 351 353 351 346 344 344 0 13 9 354 4 51 37 11 13 28 19 28 123 140 157 134 137 136 48 211 308 338 354 271 230 227 255 230 223 218 233 267 302 359 321
348 346 342 350 352 345 342 29 23 20 26 9 357 53 38 35 14 13 59 36 21 56 354 99 4 56 43 312 301 293 311 302 300 307 229 226 241 301 216 239 267 293 350
340 342 336 346 351 2 45 45 27 26 40 32 57 41 52 44 10 23 29 29 44 99 55 99 94 93 79 62 28 26 350 354 284 256 286 344 59 229 33 178 313 292 283
335 328 328 346 345 357 52 39 50 66 53 26 59 35 13 42 23 20 22 10 10 54 47 45 37 31 32 39 33 19 8 27 1 333 210 63 279 247 225 30 255 206 2
327 324 328 340 340 72 47 44 33 36 50 54 41 14 51 39 22 55 51 68 64 45 50 57 68 55 56 44 52 44 45 36 28 13 31 194 27 322 238 63 208 51 11
317 321 327 334 346 83 52 48 30 78 55 46 38 44 28 61 53 55 69 70 71 73 62 60 69 67 56 53 41 57 49 51 54 86 63 64 30 45 356 70 58 37 19
309 321 318 333 91 72 62 37 47 54 63 79 70 59 51 59 60 52 44 53 67 65 71 68 87 83 68 64 66 66 52 51 54 57 67 81 89 34 204 171 219 290 331
306 304 316 8 105 70 53 50 64 79 100 95 94 73 98 70 53 52 67 53 53 54 53 59 56 70 67 75 69 69 71 63 61 67 55 57 54 47 80 122 232 299 317
300 302 310 312 95 81 62 65 77 85 104 97 64 72 66 89 58 65 56 61 60 66 60 65 62 65 65 64 64 65 67 66 65 57 63 65 54 56 53 50 51 44 19
274 298 289 204 96 82 65 67 67 98 95 61 70 71 75 66 73 75 74 71 63 64 70 73 73 73 71 67 63 65 66 62 59 59 56 53 53 49 42 46 34 30 13
335 228 256 113 110 72 84 104 111 116 88 60 66 59 79 84 74 50 74 63 45 85 78 74 77 70 72 71 65 70 78 74 69 66 62 57 49 39 41 33 32 33 37
332 271 159 162 103 89 117 77 108 115 76 66 65 81 65 82 69 46 77 72 69 64 83 81 71 51 67 65 67 65 61 64 52 67 62 63 60 50 37 31 24 13 9
321 271 160 154 139 101 76 115 119 114 97 84 78 91 84 73 72 76 70 55 65 76 57 78 65 71 68 66 59 63 55 53 59 51 58 48 56 54 50 37 27 31 21
259 240 160 151 129 110 108 112 99 98 91 102 98 90 81 84 77 64 74 65 75 64 62 75 66 65 56 59 55 49 48 65 63 49 42 58 38 36 47 47 36 32 27
238 234 171 158 135 121 116 133 149 139 103 96 84 81 81 79 59 85 72 60 56 61 56 65 71 71 50 54 43 31 47 48 47 56 45 38 46 31 38 32 29 45 46
202 176 183 170 144 127 124 154 149 152 111 104 89 94 82 86 69 61 63 58 69 63 59 55 57 59 45 58 41 45 44 44 45 38 20 42 42 29 14 32 31 29 34
203 179 184 178 154 144 143 143 153 154 126 119 102 99 90 80 69 74 78 115 45 91 60 55 64 61 48 47 49 35 50 42 42 38 41 34 35 39 49 32 19 18 20
212 187 193 183 164 159 151 157 133 126 135 128 103 102 96 104 90 76 67 49 61 46 48 47 45 74 50 34 42 28 43 24 21 29 28 31 31 20 20 19 33 14 11
219 188 201 194 178 161 165 157 148 139 138 158 135 109 113 104 112 102 77 94 56 45 41 40 78 34 24 32 28 28 18 34 31 21 25 9 30 31 25 33 1 26 3
217 209 206 207 194 181 176 174 164 165 152 162 150 131 93 87 76 103 65 56 71 53 38 48 64 20 49 19 19 21 13 39 25 354 19 27 18 15 18 9 0 18 4
216 205 199 211 196 193 192 194 169 175 175 178 162 162 144 158 94 20 25 32 10 246 106 142 7 9 15 12 17 19 13 23 17 10 353 25 25 354 5 19 349 354 16
221 218 202 211 217 198 204 203 206 203 184 191 173 190 148 118 92 82 104 10 15 9 17 36 24 17 357 0 14 16 12 19 3 9 17 24 29 41 24 20 29 33 360
221 228 221 223 220 205 204 214 214 211 204 188 191 183 176 230 247 294 287 4 322 7 14 345 14 3 9 2 14 23 18 15 20 12 14 356 21 16 16 7 348 18 350